Temperature
6 6 5 5 5 5 5 5 5 5 5 5 5 5 5 5 5 5 5 5 6 6 6 6 6 6 6 6 6 6 6 6 6 6 7 7 7 7 7 7 7 7 8
6 6 5 5 5 5 5 5 5 5 5 5 5 5 5 5 5 5 5 5 5 5 5 5 5 5 5 5 5 5 5 5 5 5 5 5 6 6 7 7 7 7 7
6 5 5 4 4 4 4 4 4 4 4 4 4 4 4 4 4 4 4 4 4 5 5 5 5 5 5 5 5 5 5 5 5 5 5 5 5 5 6 6 6 6 6
5 5 4 4 4 4 4 4 4 4 4 4 4 4 4 4 4 4 4 4 4 4 4 4 4 4 4 4 4 4 4 4 4 4 4 4 4 4 4 5 5 6 6
5 4 4 4 3 3 3 3 3 3 3 3 4 3 3 3 3 3 3 3 3 3 3 3 3 3 3 3 3 3 3 3 3 3 3 4 4 4 3 3 4 5 5
4 4 3 3 3 3 3 3 3 3 3 3 3 3 3 3 3 3 3 3 3 3 3 3 3 3 3 3 3 3 3 3 3 3 3 3 3 3 3 3 3 4 4
3 3 2 2 2 2 2 2 2 2 2 2 2 2 3 3 2 2 2 2 2 2 3 2 2 2 2 2 2 2 2 2 2 2 2 2 2 2 2 2 2 2 3
3 2 2 2 2 2 2 2 2 2 2 2 2 2 2 2 2 2 2 2 2 2 2 2 2 2 2 2 2 2 2 2 2 2 2 2 2 2 2 2 2 1 2
2 2 2 1 1 1 1 1 1 1 1 1 1 1 1 1 1 1 1 1 1 1 1 1 1 1 1 1 1 1 1 1 2 1 1 1 1 1 1 1 1 1 1
2 1 1 1 1 1 0 1 1 1 1 1 0 0 0 1 1 1 1 1 1 1 1 1 1 1 1 1 1 1 1 1 1 1 1 1 1 1 1 1 1 0 0
1 1 0 0 0 0 -0 -0 -0 -0 -0 -0 -0 -0 -0 -0 -0 -0 0 0 0 0 0 0 0 0 0 0 0 0 1 0 1 0 0 0 0 0 0 0 0 -0 -0
0 -0 -0 -0 -0 -0 -0 -1 -1 -1 -1 -1 -1 -1 -1 -1 -1 -1 -0 -0 -0 -0 -0 -0 -0 -0 -0 -0 -0 -0 -0 -0 -0 -0 -0 -0 -0 -0 -0 -1 -1 -1 -1
-0 -1 -1 -1 -1 -1 -1 -1 -1 -1 -1 -2 -2 -2 -2 -1 -1 -1 -1 -1 -1 -1 -1 -1 -1 -1 -1 -1 -1 -1 -1 -1 -1 -1 -1 -1 -1 -1 -1 -1 -1 -1 -1
-1 -1 -2 -2 -2 -2 -2 -2 -2 -2 -2 -2 -2 -2 -2 -2 -2 -2 -2 -2 -2 -2 -1 -1 -1 -2 -2 -2 -2 -2 -2 -1 -1 -1 -1 -1 -2 -2 -2 -2 -2 -2 -2
-2 -2 -2 -2 -2 -2 -2 -3 -3 -3 -3 -3 -3 -3 -3 -3 -3 -3 -3 -2 -2 -2 -2 -2 -2 -2 -2 -2 -2 -2 -2 -2 -2 -2 -2 -2 -2 -2 -2 -3 -3 -3 -3
-2 -2 -3 -3 -3 -3 -3 -3 -3 -3 -3 -3 -3 -3 -3 -3 -3 -3 -3 -3 -3 -3 -3 -3 -3 -3 -3 -3 -3 -3 -3 -3 -3 -3 -3 -3 -3 -3 -3 -3 -3 -3 -3
-3 -3 -3 -3 -3 -3 -3 -3 -4 -4 -4 -4 -4 -4 -4 -4 -4 -4 -4 -4 -4 -4 -4 -4 -4 -3 -3 -4 -4 -4 -4 -4 -4 -4 -4 -4 -4 -4 -4 -4 -4 -4 -4
-3 -3 -3 -4 -4 -4 -4 -4 -4 -4 -4 -5 -5 -5 -5 -5 -5 -5 -5 -5 -5 -5 -5 -4 -4 -4 -4 -4 -5 -5 -5 -5 -5 -5 -5 -5 -5 -5 -5 -5 -4 -4 -4
-3 -4 -4 -4 -4 -4 -4 -4 -4 -5 -5 -5 -5 -5 -5 -5 -5 -5 -5 -5 -5 -5 -5 -5 -5 -5 -5 -5 -5 -5 -5 -5 -5 -5 -5 -5 -5 -5 -5 -5 -5 -5 -5
-4 -4 -4 -4 -4 -4 -5 -5 -5 -5 -5 -6 -6 -6 -6 -6 -6 -6 -6 -6 -6 -6 -6 -6 -6 -6 -6 -6 -6 -6 -6 -6 -6 -6 -6 -6 -6 -6 -6 -6 -6 -5 -5
-4 -5 -5 -5 -5 -5 -5 -6 -6 -6 -6 -6 -6 -6 -6 -7 -7 -7 -7 -7 -7 -7 -7 -7 -6 -6 -6 -6 -6 -6 -7 -7 -6 -6 -6 -6 -6 -6 -6 -6 -6 -6 -6
-5 -5 -5 -5 -6 -6 -6 -6 -6 -6 -7 -7 -7 -7 -7 -7 -7 -7 -7 -7 -7 -7 -7 -7 -7 -7 -7 -7 -7 -7 -7 -7 -7 -7 -7 -7 -7 -7 -7 -7 -7 -7 -6
-6 -6 -6 -6 -6 -6 -7 -7 -7 -7 -7 -7 -7 -7 -7 -7 -8 -8 -8 -8 -8 -8 -8 -8 -8 -8 -8 -8 -8 -8 -8 -8 -8 -8 -8 -8 -8 -7 -7 -7 -7 -7 -7
-6 -6 -7 -7 -7 -7 -7 -7 -7 -8 -8 -8 -8 -8 -8 -8 -8 -8 -8 -9 -9 -9 -9 -9 -9 -9 -8 -8 -8 -8 -8 -8 -8 -8 -8 -8 -8 -8 -8 -8 -8 -8 -8
-7 -7 -7 -7 -7 -7 -7 -7 -8 -8 -8 -8 -8 -8 -9 -9 -9 -9 -9 -9 -9 -9 -9 -9 -9 -9 -9 -9 -9 -9 -9 -9 -9 -9 -9 -9 -9 -9 -9 -9 -8 -8 -8
-7 -7 -8 -8 -8 -8 -8 -8 -8 -8 -9 -9 -9 -9 -9 -9 -9 -9 -9 -9 -9 -10 -10 -10 -10 -10 -10 -10 -10 -10 -9 -9 -9 -9 -9 -9 -9 -9 -9 -9 -9 -9 -9
Wind_Speed
5 5 4 4 3 3 3 3 3 3 3 2 2 1 1 0 1 1 1 0 0 0 1 1 1 1 0 1 1 1 1 2 2 1 2 2 2 2 2 1 1 1 2
4 5 5 4 3 3 3 3 3 3 3 2 2 1 1 1 0 1 1 0 0 1 1 0 1 1 1 1 1 1 0 1 1 0 1 1 2 2 2 1 2 2 2
4 4 4 4 3 3 3 3 3 3 3 2 2 2 1 1 0 0 0 1 1 1 1 1 0 1 1 1 1 1 1 1 2 1 1 1 2 2 2 2 2 2 2
3 4 4 4 3 3 2 2 2 3 3 3 3 3 2 2 2 1 1 1 1 1 1 1 1 1 1 2 2 1 1 1 2 2 2 2 1 1 2 2 2 3 3
2 3 4 4 3 3 2 2 2 2 2 3 3 3 2 2 1 1 1 1 1 1 1 2 1 1 1 2 2 2 2 2 2 2 2 3 2 2 2 3 4 3 3
1 2 2 3 2 2 2 2 2 2 2 2 3 3 3 2 2 2 2 1 1 1 1 2 2 2 2 3 3 3 3 3 3 3 2 2 2 3 3 3 4 4 4
2 2 2 2 2 2 2 2 2 2 2 2 2 3 3 3 3 3 2 2 1 1 2 2 2 3 3 3 3 3 4 4 4 4 4 3 4 3 3 4 4 5 4
2 2 1 1 1 2 2 2 2 2 2 3 3 3 2 2 2 2 2 2 2 3 2 3 3 4 4 4 4 3 4 4 5 5 4 4 4 3 3 4 3 5 5
2 2 2 1 1 1 2 2 2 2 2 3 3 3 3 2 2 2 2 2 2 2 2 3 4 4 5 5 4 4 5 4 5 5 5 4 4 4 4 4 4 5 5
3 2 2 2 1 0 0 1 2 2 2 2 2 3 3 3 3 2 2 2 2 2 3 3 4 4 5 5 4 4 5 5 5 4 5 5 4 4 4 4 4 5 6
2 2 2 2 1 1 0 0 1 1 1 2 2 2 3 2 2 2 2 2 2 2 3 4 4 4 5 5 5 6 6 6 6 6 6 6 5 4 4 4 4 5 5
2 2 2 2 2 1 1 1 0 1 1 1 1 2 2 2 2 2 2 2 2 3 3 3 4 5 5 5 5 6 6 7 7 7 7 7 6 6 5 4 5 6 6
2 2 2 2 2 2 2 2 1 1 1 0 1 1 1 2 2 3 3 2 3 3 3 3 4 5 5 5 5 6 6 6 7 7 7 7 6 6 5 5 5 5 6
2 2 2 2 2 2 2 2 2 2 1 1 1 1 1 2 2 2 2 2 2 3 3 4 5 5 5 5 5 5 5 5 6 6 6 6 7 7 6 6 6 5 5
2 2 2 3 2 2 2 3 3 2 2 1 1 2 2 1 1 2 2 2 2 3 3 3 4 4 4 4 4 5 5 5 5 5 5 6 8 8 7 7 6 6 6
3 3 3 3 2 2 2 2 2 2 2 1 2 2 2 2 2 2 2 2 2 3 2 3 3 4 4 6 7 5 5 5 5 6 6 6 7 8 10 11 11 10 8
4 4 4 4 3 2 2 2 2 2 2 2 2 2 2 2 2 2 2 2 3 3 3 3 4 4 5 7 7 7 5 4 5 5 5 6 6 6 5 7 10 10 12
4 4 3 3 2 1 1 1 2 2 2 2 2 2 2 2 2 3 3 3 3 3 3 4 4 4 5 7 7 7 5 5 5 5 5 6 5 6 6 6 7 7 8
3 3 3 2 1 1 1 1 2 2 2 2 3 3 2 3 3 3 3 3 3 3 3 4 4 4 5 7 7 7 4 4 5 5 5 6 6 8 9 7 7 7 7
3 3 2 1 1 1 1 1 2 2 2 3 3 3 3 3 3 3 3 3 3 3 4 5 4 4 5 7 7 7 3 4 4 5 5 7 8 10 10 7 6 7 7
3 2 1 1 1 1 1 1 2 2 3 3 3 3 3 3 3 3 3 3 3 4 4 4 4 4 5 6 7 7 4 4 4 4 4 5 8 10 10 9 7 8 8
3 2 1 1 1 1 0 1 2 3 3 3 3 3 3 3 3 3 3 3 3 4 4 4 5 4 4 5 6 8 8 7 4 5 4 5 9 10 11 9 9 10 8
4 2 1 2 2 1 1 2 3 3 3 3 3 3 4 4 3 3 3 3 3 3 4 3 4 4 4 4 7 8 9 9 5 5 7 8 9 9 8 9 10 8 5
3 2 1 2 2 2 2 2 3 3 3 3 3 3 4 4 4 3 3 3 3 3 4 4 4 4 4 4 4 4 5 7 6 5 7 9 9 7 7 7 6 5 4
3 2 2 2 3 2 2 3 3 2 3 3 3 3 3 4 4 4 3 4 3 4 5 4 4 4 5 6 8 6 4 4 4 4 3 3 3 4 4 4 4 4 4
3 2 2 2 3 2 2 3 3 2 2 3 3 3 3 3 3 4 5 6 6 8 9 8 8 6 8 10 10 10 10 9 7 4 3 3 4 4 4 5 4 4 4
Wind_Direction
171 153 154 150 154 151 161 168 162 162 144 154 157 162 187 260 353 23 25 332 202 189 74 6 353 351 316 324 322 340 335 335 331 343 326 299 265 234 228 228 192 195 212
162 157 156 159 172 172 178 180 170 172 164 171 169 176 172 186 198 15 6 277 226 251 217 48 346 328 299 306 304 302 294 298 320 4 337 315 312 307 266 231 216 221 211
175 167 164 170 174 184 190 197 181 176 172 161 145 135 120 116 145 226 245 303 266 239 239 232 248 308 293 261 265 257 256 257 279 262 162 176 239 307 272 243 224 224 229
159 166 170 174 182 189 182 186 179 176 173 168 165 166 179 192 213 208 204 230 255 261 235 239 237 250 271 270 260 260 260 236 253 277 263 241 199 202 290 291 264 253 243
154 167 174 182 182 166 164 175 162 165 167 170 183 186 199 201 185 177 175 198 212 228 241 236 238 241 256 264 262 255 257 241 239 253 274 270 271 229 222 264 279 282 262
119 139 159 158 155 142 146 161 166 179 171 179 202 202 201 203 191 193 196 213 227 213 218 241 234 243 253 251 247 240 246 246 245 250 254 250 238 232 230 245 264 272 269
122 133 132 144 155 155 163 171 175 193 189 191 215 221 207 197 199 201 205 218 241 249 228 236 239 243 248 252 252 243 243 247 246 245 248 253 258 255 251 250 264 273 282
114 120 135 141 149 170 179 191 198 206 199 211 224 223 218 215 220 215 220 226 237 241 232 233 244 246 241 245 247 251 244 246 244 246 248 253 258 259 247 237 250 272 275
86 85 84 102 121 167 198 204 208 217 209 213 218 224 225 223 227 235 230 235 240 249 235 233 243 247 243 240 237 244 246 245 245 243 245 246 248 253 251 239 223 231 260
45 55 56 48 52 56 240 229 215 220 220 214 216 232 237 237 230 232 236 243 248 252 248 245 241 247 248 243 239 246 247 243 248 244 243 247 246 253 252 244 237 232 239
20 24 21 24 34 31 95 202 226 226 223 220 226 226 236 244 239 245 248 250 258 255 251 255 254 252 250 244 239 242 241 241 247 249 243 247 246 249 255 250 244 242 235
4 357 0 10 14 6 12 352 278 244 242 232 219 226 235 243 249 255 263 262 262 262 261 262 260 258 256 249 241 243 244 240 242 245 244 246 246 246 253 248 247 246 241
347 346 353 354 351 359 356 346 343 331 326 302 232 240 242 252 260 262 266 261 257 262 267 259 259 259 256 253 250 245 245 243 244 245 245 244 242 244 253 250 249 251 254
322 330 334 330 341 356 353 344 344 339 332 331 289 270 261 262 274 274 264 268 270 269 272 267 263 259 255 254 255 253 252 249 250 249 249 249 241 241 247 249 247 251 255
315 316 317 315 325 338 341 341 339 341 340 338 308 290 300 310 301 294 288 288 283 281 280 280 282 274 261 253 251 247 250 251 253 254 253 255 252 251 254 252 244 243 248
306 313 315 314 312 311 316 325 328 334 349 340 309 314 327 328 318 305 302 301 304 303 300 287 281 275 272 276 272 265 252 253 254 259 262 263 260 263 267 267 262 253 247
311 308 301 298 294 289 288 295 318 340 348 337 329 328 326 325 317 310 313 307 310 313 305 292 281 274 274 276 277 276 269 256 256 259 261 266 267 268 260 270 273 269 265
303 295 294 299 301 305 322 354 356 348 344 340 331 326 322 313 311 306 301 301 307 305 300 294 286 281 275 275 276 279 274 263 257 255 254 256 264 266 264 262 265 263 265
302 292 287 291 316 339 1 12 353 350 343 334 332 328 320 307 306 303 305 308 310 307 300 294 287 282 281 276 276 280 271 265 264 261 260 259 258 269 271 263 262 268 271
327 320 319 335 340 340 23 16 338 332 320 321 322 321 318 306 300 300 305 305 303 296 296 294 291 284 280 280 281 281 269 264 266 267 268 269 268 270 273 262 257 263 268
325 323 325 330 316 332 32 328 314 300 308 318 318 316 312 306 298 297 299 304 303 304 297 292 291 285 285 291 288 284 274 264 265 268 269 268 273 275 276 273 265 266 273
330 330 337 326 329 329 290 299 298 306 318 316 312 312 311 308 308 305 302 300 301 301 297 295 296 293 290 292 291 289 287 282 267 266 267 269 279 281 282 279 275 279 284
326 339 349 332 331 328 307 284 298 311 313 314 312 313 314 313 310 305 301 301 296 291 292 291 293 296 297 295 295 293 290 289 276 270 275 278 280 283 284 287 288 286 275
327 338 345 326 317 326 334 301 302 311 312 309 313 316 317 315 314 305 295 295 293 290 289 289 290 295 298 296 296 295 294 293 286 280 279 282 285 284 283 284 286 279 266
321 324 313 300 301 317 323 313 306 306 309 307 309 313 311 308 307 303 293 287 275 277 284 281 281 287 290 290 295 295 291 285 274 282 271 267 274 274 277 276 274 277 275
315 313 306 302 302 310 309 309 304 295 295 304 307 307 308 306 305 306 309 303 295 295 292 290 289 288 288 296 297 297 300 295 287 283 269 268 269 270 274 276 278 277 278
Height
1485 1486 1487 1488 1489 1490 1491 1491 1492 1494 1495 1496 1497 1499 1500 1502 1504 1505 1506 1508 1509 1510 1511 1511 1512 1513 1514 1515 1516 1517 1518 1518 1519 1520 1520 1521 1522 1522 1523 1525 1526 1526 1527
1482 1483 1484 1485 1486 1487 1488 1489 1490 1491 1492 1493 1494 1496 1498 1499 1500 1502 1503 1504 1506 1507 1507 1508 1509 1510 1511 1512 1513 1514 1514 1516 1517 1518 1518 1518 1519 1519 1520 1521 1522 1523 1524
1479 1480 1481 1482 1483 1484 1485 1486 1487 1488 1489 1490 1492 1493 1495 1496 1497 1498 1499 1500 1502 1503 1504 1505 1506 1507 1508 1509 1510 1510 1511 1512 1513 1515 1517 1517 1516 1516 1516 1517 1519 1519 1520
1476 1477 1478 1479 1480 1481 1482 1483 1484 1485 1486 1487 1488 1489 1490 1491 1493 1494 1495 1497 1498 1500 1501 1502 1503 1504 1504 1505 1506 1507 1508 1509 1510 1511 1513 1514 1514 1515 1513 1514 1515 1515 1516
1474 1474 1475 1476 1477 1478 1479 1480 1481 1482 1483 1484 1485 1486 1487 1489 1490 1491 1492 1493 1495 1496 1497 1498 1499 1500 1501 1501 1502 1503 1504 1505 1506 1507 1508 1510 1511 1511 1511 1510 1510 1511 1512
1472 1473 1473 1474 1475 1475 1476 1477 1478 1478 1479 1480 1481 1483 1484 1485 1486 1487 1488 1489 1490 1491 1493 1494 1495 1496 1496 1497 1498 1499 1500 1501 1502 1503 1504 1505 1506 1506 1508 1507 1506 1506 1506
1470 1471 1471 1472 1472 1472 1473 1474 1474 1475 1476 1477 1478 1479 1480 1481 1482 1483 1484 1485 1486 1487 1488 1489 1490 1491 1492 1492 1493 1494 1495 1496 1497 1498 1499 1500 1501 1502 1503 1503 1503 1502 1501
1469 1470 1470 1470 1470 1470 1470 1471 1471 1471 1472 1473 1474 1475 1476 1478 1479 1480 1481 1481 1482 1483 1484 1485 1485 1486 1487 1488 1489 1489 1490 1491 1492 1493 1494 1495 1496 1497 1498 1498 1499 1497 1496
1468 1469 1469 1469 1469 1468 1468 1468 1468 1468 1469 1470 1471 1472 1473 1474 1475 1476 1476 1477 1478 1479 1479 1480 1480 1481 1482 1483 1483 1484 1485 1486 1486 1487 1488 1489 1490 1491 1493 1493 1494 1494 1492
1468 1468 1468 1467 1467 1467 1466 1466 1466 1465 1465 1466 1467 1468 1469 1470 1471 1471 1472 1473 1473 1474 1474 1475 1475 1476 1476 1477 1478 1478 1479 1480 1480 1481 1482 1483 1484 1485 1486 1487 1488 1488 1488
1467 1467 1467 1466 1465 1464 1464 1463 1463 1462 1462 1462 1463 1464 1464 1465 1466 1466 1467 1468 1469 1469 1469 1469 1470 1470 1471 1472 1472 1473 1473 1474 1475 1475 1476 1477 1478 1479 1480 1480 1481 1482 1482
1466 1466 1465 1464 1463 1462 1461 1461 1460 1460 1460 1459 1460 1460 1460 1461 1461 1462 1462 1463 1463 1464 1464 1464 1465 1465 1466 1466 1467 1467 1467 1468 1468 1469 1470 1470 1472 1472 1473 1474 1474 1475 1475
1465 1464 1463 1462 1461 1460 1459 1458 1458 1457 1457 1457 1457 1457 1457 1457 1457 1457 1458 1458 1458 1458 1459 1459 1459 1459 1460 1460 1461 1461 1462 1462 1462 1463 1463 1464 1465 1465 1466 1467 1467 1468 1468
1463 1462 1461 1460 1459 1458 1457 1456 1455 1455 1454 1454 1453 1453 1453 1453 1453 1453 1453 1453 1453 1453 1453 1453 1453 1453 1454 1454 1454 1455 1455 1456 1456 1457 1457 1457 1458 1459 1460 1460 1461 1461 1461
1461 1460 1459 1458 1457 1455 1454 1453 1452 1452 1451 1451 1450 1450 1450 1450 1450 1449 1449 1449 1449 1448 1448 1448 1448 1448 1448 1448 1449 1449 1449 1449 1450 1450 1450 1451 1452 1452 1454 1454 1454 1454 1454
1459 1458 1457 1455 1454 1453 1452 1451 1450 1449 1449 1448 1448 1447 1446 1446 1446 1446 1445 1445 1443 1443 1443 1442 1442 1442 1442 1443 1443 1444 1443 1443 1443 1443 1444 1445 1445 1446 1447 1448 1448 1448 1448
1456 1455 1454 1453 1452 1451 1450 1448 1447 1447 1446 1446 1445 1444 1444 1443 1442 1442 1441 1440 1439 1439 1438 1438 1437 1437 1437 1437 1438 1438 1437 1438 1437 1437 1438 1438 1439 1439 1440 1440 1441 1441 1441
1454 1452 1451 1450 1449 1448 1447 1446 1445 1444 1443 1443 1442 1441 1441 1440 1439 1438 1437 1436 1435 1434 1434 1433 1433 1432 1432 1432 1433 1433 1433 1432 1432 1432 1432 1432 1432 1433 1434 1434 1433 1433 1433
1451 1450 1449 1448 1446 1445 1444 1444 1442 1442 1441 1440 1439 1438 1438 1437 1436 1435 1433 1432 1431 1430 1430 1429 1428 1427 1427 1428 1428 1428 1427 1426 1426 1426 1427 1427 1426 1427 1428 1428 1426 1425 1426
1449 1447 1446 1445 1444 1443 1442 1441 1440 1439 1438 1438 1437 1436 1435 1434 1433 1432 1430 1429 1428 1427 1426 1425 1424 1424 1423 1423 1423 1423 1422 1421 1421 1421 1421 1421 1421 1421 1421 1421 1419 1418 1418
1446 1445 1444 1443 1442 1441 1440 1439 1437 1437 1436 1435 1434 1433 1432 1431 1430 1429 1428 1426 1425 1424 1422 1421 1421 1420 1419 1419 1418 1418 1418 1416 1415 1415 1415 1415 1415 1415 1416 1415 1414 1413 1413
1443 1442 1441 1440 1439 1438 1437 1436 1435 1434 1434 1433 1432 1431 1430 1429 1428 1426 1425 1424 1422 1420 1419 1417 1416 1416 1415 1415 1414 1413 1413 1412 1411 1410 1409 1409 1410 1410 1410 1410 1409 1408 1408
1441 1440 1439 1437 1436 1436 1435 1434 1433 1432 1431 1430 1429 1428 1427 1426 1425 1424 1422 1421 1419 1417 1416 1414 1413 1412 1411 1411 1410 1409 1408 1407 1406 1405 1404 1405 1405 1404 1404 1404 1403 1403 1402
1439 1437 1436 1435 1434 1433 1432 1432 1431 1430 1429 1427 1426 1425 1424 1423 1422 1420 1419 1418 1416 1414 1413 1411 1410 1408 1407 1406 1405 1404 1403 1402 1401 1400 1400 1400 1400 1399 1399 1398 1398 1397 1397
1436 1435 1434 1432 1432 1431 1430 1429 1428 1427 1426 1425 1423 1422 1421 1420 1419 1417 1416 1415 1414 1413 1411 1409 1407 1405 1403 1403 1402 1400 1399 1397 1397 1396 1395 1395 1394 1394 1393 1393 1392 1392 1391
1433 1432 1431 1430 1429 1428 1427 1427 1426 1425 1423 1422 1420 1419 1418 1417 1416 1414 1413 1412 1411 1409 1408 1406 1405 1402 1401 1400 1398 1396 1395 1394 1393 1392 1390 1390 1389 1389 1388 1387 1387 1386 1386